^^
Grace C. Lehan Memorial Weather Station Historical Data
Daily Summary for April 25, 2021 Units:  Metric    English   Both
Daily Weekly Monthly Yearly
  High: Low: Average:
Temperature: 1.7 °C -2.1 °C -0.1 °C
Dew Point: 0.9 °C -3.6 °C -1 °C
Humidity: 95.3% 89% 93%
Wind Speed: 2.7km/h 0km/h 0.2km/h
Wind Gust: 6.4km/h - -
Wind- - NE
Pressure: 1013.1 hPa 997.5 hPa -
Precipitation: 1.27 mm    
 
 
Tabular Data for April 25, 2021
Time Temperature Dew Point Pressure Wind Wind Speed Wind Gust Humidity Rainfall Rate (Hourly) solar
00:04 -2 °C -3.6 °C 1013.1 hPa Calm     89% 0 mm 0 W/m2
00:09 -1.9 °C -3.6 °C 1013.1 hPa Calm     89% 0 mm 0 W/m2
00:14 -1.9 °C -3.5 °C 1012.8 hPa Calm     89% 0 mm 0 W/m2
00:19 -1.9 °C -3.5 °C 1012.4 hPa Calm     89% 0 mm 0 W/m2
00:24 -1.9 °C -3.5 °C 1012.4 hPa Calm     89% 0 mm 0 W/m2
00:29 -1.9 °C -3.6 °C 1012.4 hPa Calm     89% 0 mm 0 W/m2
00:34 -1.9 °C -3.5 °C 1012.1 hPa Calm     89% 0 mm 0 W/m2
00:39 -1.9 °C -3.5 °C 1012.1 hPa Calm     89% 0 mm 0 W/m2
00:44 -1.9 °C -3.5 °C 1012.1 hPa Calm     89% 0 mm 0 W/m2
00:49 -2 °C -3.6 °C 1012.1 hPa Calm     89% 0 mm 0 W/m2
00:54 -2 °C -3.6 °C 1011.7 hPa Calm     89% 0 mm 0 W/m2
00:59 -2.1 °C -3.6 °C 1012.4 hPa Calm   1.6 km/h 89% 0 mm 0 W/m2
01:04 -2.1 °C -3.6 °C 1012.4 hPa Calm   1.6 km/h 89% 0 mm 0 W/m2
01:09 -2.1 °C -3.6 °C 1012.4 hPa Calm     89% 0 mm 0 W/m2
01:14 -2.1 °C -3.6 °C 1012.8 hPa Calm     89.1% 0 mm 0 W/m2
01:19 -2.1 °C -3.5 °C 1012.8 hPa Calm     90% 0 mm 0 W/m2
01:24 -2.1 °C -3.4 °C 1012.8 hPa Calm     90% 0 mm 0 W/m2
01:29 -2.1 °C -3.4 °C 1012.4 hPa Calm     90% 0 mm 0 W/m2
01:34 -2.1 °C -3.4 °C 1012.4 hPa Calm     90% 0 mm 0 W/m2
01:39 -2.1 °C -3.4 °C 1012.1 hPa Calm     90% 0 mm 0 W/m2
01:44 -2.1 °C -3.4 °C 1012.1 hPa Calm     90% 0 mm 0 W/m2
01:49 -2 °C -3.4 °C 1012.1 hPa Calm     90% 0 mm 0 W/m2
01:54 -2 °C -3.4 °C 1012.1 hPa Calm     90% 0 mm 0 W/m2
01:59 -2 °C -3.4 °C 1012.1 hPa Calm     90% 0 mm 0 W/m2
02:04 -1.9 °C -3.3 °C 1011.7 hPa Calm     90% 0 mm 0 W/m2
02:09 -1.9 °C -3.3 °C 1011.7 hPa Calm     90% 0 mm 0 W/m2
02:14 -1.9 °C -3.3 °C 1011.7 hPa Calm     90% 0 mm 0 W/m2
02:19 -1.9 °C -3.3 °C 1011.4 hPa Calm     90% 0 mm 0 W/m2
02:24 -1.8 °C -3.3 °C 1011.4 hPa Calm     90% 0 mm 0 W/m2
02:29 -1.8 °C -3.2 °C 1011.4 hPa Calm     90% 0 mm 0 W/m2
02:34 -1.8 °C -3.2 °C 1011.4 hPa Calm     90% 0 mm 0 W/m2
02:39 -1.8 °C -3.2 °C 1011.1 hPa Calm     90% 0 mm 0 W/m2
02:44 -1.8 °C -3.2 °C 1011.1 hPa Calm     90% 0 mm 0 W/m2
02:49 -1.8 °C -3.2 °C 1010.4 hPa Calm     90% 0 mm 0 W/m2
02:54 -1.8 °C -3.2 °C 1010.4 hPa Calm     90% 0 mm 0 W/m2
02:59 -1.8 °C -3.2 °C 1010 hPa Calm     90% 0 mm 0 W/m2
03:04 -1.8 °C -3.2 °C 1010 hPa Calm     90% 0 mm 0 W/m2
03:09 -1.8 °C -3.3 °C 1010 hPa Calm     90% 0 mm 0 W/m2
03:14 -1.8 °C -3.3 °C 1010 hPa Calm     90% 0 mm 0 W/m2
03:19 -1.8 °C -3.2 °C 1010 hPa Calm     90% 0 mm 0 W/m2
03:24 -1.8 °C -3.2 °C 1010 hPa Calm     90% 0 mm 0 W/m2
03:29 -1.8 °C -3.2 °C 1009.7 hPa Calm     90% 0 mm 0 W/m2
03:34 -1.8 °C -3.2 °C 1009.7 hPa Calm     90% 0 mm 0 W/m2
03:39 -1.8 °C -3.2 °C 1009.4 hPa Calm     90% 0 mm 0 W/m2
03:44 -1.8 °C -3.2 °C 1009.4 hPa Calm     90% 0 mm 0 W/m2
03:49 -1.8 °C -3.2 °C 1009 hPa Calm     90% 0 mm 0 W/m2
03:54 -1.8 °C -3.2 °C 1009 hPa Calm     90% 0 mm 0 W/m2
03:59 -1.8 °C -3.2 °C 1008.7 hPa Calm     90% 0 mm 0 W/m2
04:00 -1.8 °C -3.3 °C 1008.7 hPa Calm     90% 0 mm 0 W/m2
04:09 -1.8 °C -3.3 °C 1008.4 hPa Calm     90% 0 mm 0 W/m2
04:14 -1.8 °C -3.3 °C 1008.4 hPa Calm     90% 0 mm 0 W/m2
04:19 -1.8 °C -3.2 °C 1008.4 hPa Calm     90% 0 mm 0 W/m2
04:24 -1.8 °C -3.2 °C 1008.4 hPa Calm     90% 0 mm 0 W/m2
04:29 -1.8 °C -3.3 °C 1008 hPa Calm     90% 0 mm 0 W/m2
04:34 -1.8 °C -3.2 °C 1008.4 hPa Calm     90% 0 mm 0 W/m2
04:39 -1.8 °C -3.2 °C 1008 hPa Calm     90% 0 mm 0 W/m2
04:44 -1.7 °C -3 °C 1008 hPa Calm     90.9% 0 mm 0 W/m2
04:49 -1.7 °C -2.9 °C 1008 hPa Calm     91% 0 mm 0 W/m2
04:54 -1.7 °C -2.9 °C 1008 hPa Calm     91% 0 mm 0 W/m2
04:59 -1.7 °C -2.9 °C 1008 hPa Calm     91% 0 mm 0 W/m2
05:04 -1.6 °C -2.9 °C 1007.7 hPa NE 2.6 km/h 6.4 km/h 91% 0 mm 0 W/m2
05:09 -1.6 °C -3 °C 1007.7 hPa NE 0.2 km/h 6.4 km/h 90.2% 0 mm 0 W/m2
05:14 -1.6 °C -3.1 °C 1007.7 hPa NE 0.8 km/h 6.4 km/h 90% 0 mm 0 W/m2
05:19 -1.6 °C -3.1 °C 1007.7 hPa Calm   6.4 km/h 90% 0 mm 0 W/m2
05:24 -1.6 °C -3.1 °C 1007.7 hPa NE 0.2 km/h 6.4 km/h 90% 0 mm 0 W/m2
05:29 -1.6 °C -3.1 °C 1007.3 hPa Calm   6.4 km/h 90% 0 mm 0 W/m2
05:34 -1.6 °C -3.1 °C 1007.3 hPa Calm   6.4 km/h 90% 0 mm 0 W/m2
05:39 -1.7 °C -3.1 °C 1007 hPa Calm   1.6 km/h 90% 0 mm 0 W/m2
05:44 -1.7 °C -3.1 °C 1006.7 hPa Calm   1.6 km/h 90% 0 mm 0 W/m2
05:49 -1.7 °C -2.9 °C 1006.3 hPa NE 1 km/h 3.2 km/h 90.8% 0 mm 0 W/m2
05:54 -1.6 °C -2.9 °C 1006.3 hPa NE 2.7 km/h 4.8 km/h 91% 0 mm 0 W/m2
05:59 -1.6 °C -2.9 °C 1006 hPa NE 1.8 km/h 4.8 km/h 91% 0 mm 0 W/m2
06:04 -1.6 °C -2.9 °C 1006 hPa NE 1.4 km/h 4.8 km/h 91% 0 mm 0 W/m2
06:09 -1.6 °C -2.9 °C 1005.6 hPa Calm   4.8 km/h 91% 0 mm 0 W/m2
06:14 -1.6 °C -2.9 °C 1005.6 hPa Calm   4.8 km/h 91% 0 mm 0 W/m2
06:19 -1.6 °C -2.9 °C 1005.6 hPa Calm   4.8 km/h 91% 0 mm 0 W/m2
06:24 -1.6 °C -2.9 °C 1006 hPa Calm   4.8 km/h 91% 0 mm 0 W/m2
06:29 -1.6 °C -2.9 °C 1006 hPa NE 0.5 km/h 4.8 km/h 91% 0 mm 0 W/m2
06:34 -1.6 °C -2.8 °C 1006 hPa NE 0.5 km/h 4.8 km/h 91% 0 mm 0 W/m2
06:39 -1.6 °C -2.8 °C 1005.6 hPa Calm   3.2 km/h 91% 0 mm 0 W/m2
06:44 -1.5 °C -2.7 °C 1005.6 hPa Calm   3.2 km/h 91.4% 0 mm 0 W/m2
06:49 -1.4 °C -2.5 °C 1005.6 hPa Calm   3.2 km/h 92% 0 mm 0 W/m2
06:54 -1.3 °C -2.4 °C 1005.6 hPa Calm   3.2 km/h 92% 0 mm 0 W/m2
06:59 -1.3 °C -2.4 °C 1005.6 hPa NE 0.5 km/h 4.8 km/h 92% 0 mm 0 W/m2
07:04 -1.2 °C -2.3 °C 1005.6 hPa NE 0.3 km/h 4.8 km/h 92% 0 mm 0 W/m2
07:09 -1.2 °C -2.3 °C 1005.6 hPa Calm   4.8 km/h 92% 0 mm 0 W/m2
07:14 -1.1 °C -2.2 °C 1005.3 hPa NE 0.8 km/h 4.8 km/h 92.4% 0 mm 0 W/m2
07:19 -1.1 °C -2.1 °C 1005.6 hPa NE 1.8 km/h 4.8 km/h 92.5% 0 mm 0 W/m2
07:24 -1.1 °C -2.2 °C 1005.3 hPa NE 0.5 km/h 4.8 km/h 92.1% 0.25 mm 0 W/m2
07:29 -1.1 °C -2.1 °C 1005.3 hPa NE 0.3 km/h 4.8 km/h 92.8% 0.51 mm 0 W/m2
07:34 -1 °C -2 °C 1005.3 hPa NE 0.3 km/h 4.8 km/h 93% 0.76 mm 0 W/m2
07:39 -0.9 °C -1.9 °C 1005.3 hPa Calm   3.2 km/h 93% 1.02 mm 0 W/m2
07:44 -0.9 °C -1.9 °C 1005 hPa Calm   3.2 km/h 93% 1.27 mm 0 W/m2
07:49 -0.9 °C -1.8 °C 1005 hPa Calm   3.2 km/h 93% 1.27 mm 0 W/m2
07:54 -0.8 °C -1.8 °C 1005 hPa Calm   3.2 km/h 93% 1.27 mm 0 W/m2
07:59 -0.8 °C -1.8 °C 1004.6 hPa Calm   3.2 km/h 93% 1.27 mm 5 W/m2
08:00 -0.8 °C -1.8 °C 1004.6 hPa Calm   3.2 km/h 93% 1.27 mm 5 W/m2
08:09 -0.8 °C -1.8 °C 1004.6 hPa NE 0.2 km/h 3.2 km/h 93% 1.27 mm 7 W/m2
08:14 -0.7 °C -1.7 °C 1004.3 hPa Calm   3.2 km/h 93% 1.27 mm 9 W/m2
08:19 -0.7 °C -1.7 °C 1004.3 hPa Calm   3.2 km/h 93% 1.27 mm 11 W/m2
08:24 -0.7 °C -1.7 °C 1003.9 hPa Calm   3.2 km/h 93% 1.27 mm 11 W/m2
08:29 -0.6 °C -1.6 °C 1003.9 hPa Calm   3.2 km/h 93% 1.27 mm 11 W/m2
08:34 -0.5 °C -1.5 °C 1003.9 hPa Calm   3.2 km/h 93% 1.27 mm 14 W/m2
08:39 -0.5 °C -1.5 °C 1003.9 hPa NE 0.5 km/h 4.8 km/h 93% 0.76 mm 19 W/m2
08:44 -0.5 °C -1.5 °C 1003.9 hPa Calm   4.8 km/h 93% 0.76 mm 19 W/m2
08:49 -0.5 °C -1.5 °C 1003.6 hPa NE 0.2 km/h 4.8 km/h 93% 0.76 mm 18 W/m2
08:54 -0.5 °C -1.5 °C 1003.6 hPa Calm   4.8 km/h 93% 0.76 mm 19 W/m2
08:59 -0.4 °C -1.4 °C 1003.6 hPa Calm   4.8 km/h 93.5% 0.76 mm 18 W/m2
09:04 -0.4 °C -1.2 °C 1003.3 hPa Calm   4.8 km/h 94% 0.76 mm 25 W/m2
09:09 -0.3 °C -1.2 °C 1003.3 hPa Calm     94% 0 mm 21 W/m2
09:14 -0.3 °C -1.2 °C 1002.9 hPa Calm     94% 0 mm 25 W/m2
09:19 -0.3 °C -1.2 °C 1002.9 hPa Calm     94% 0 mm 33 W/m2
09:24 -0.3 °C -1.1 °C 1002.9 hPa Calm     94% 0 mm 37 W/m2
09:29 -0.2 °C -1.1 °C 1002.9 hPa Calm     94% 0 mm 40 W/m2
09:34 -0.2 °C -1.1 °C 1002.6 hPa Calm     94% 0 mm 47 W/m2
09:39 -0.1 °C -0.9 °C 1002.6 hPa Calm     94% 0 mm 44 W/m2
09:44 -0.1 °C -0.9 °C 1002.6 hPa Calm     94% 0 mm 44 W/m2
09:49 -0.1 °C -0.9 °C 1002.3 hPa Calm     94% 0 mm 39 W/m2
09:54 0 °C -0.7 °C 1002.3 hPa Calm     95.3% 0 mm 56 W/m2
09:59 0.1 °C -0.7 °C 1002.3 hPa Calm     94.8% 0 mm 54 W/m2
10:04 0.1 °C -0.7 °C 1002.3 hPa Calm     94% 0 mm 33 W/m2
10:09 0.2 °C -0.7 °C 1002.3 hPa Calm     94% 0 mm 32 W/m2
10:14 0.2 °C -0.7 °C 1002.3 hPa Calm     94% 0 mm 23 W/m2
10:19 0.2 °C -0.7 °C 1001.9 hPa Calm     94% 0 mm 19 W/m2
10:24 0.3 °C -0.6 °C 1001.9 hPa Calm     94% 0 mm 19 W/m2
10:29 0.4 °C -0.4 °C 1001.9 hPa Calm     94% 0 mm 25 W/m2
10:34 0.4 °C -0.4 °C 1001.6 hPa Calm     94% 0 mm 28 W/m2
10:39 0.4 °C -0.4 °C 1001.2 hPa Calm     94% 0 mm 30 W/m2
10:44 0.4 °C -0.4 °C 1001.2 hPa Calm     94% 0 mm 26 W/m2
10:49 0.4 °C -0.4 °C 1000.9 hPa Calm     94% 0 mm 37 W/m2
10:54 0.4 °C -0.4 °C 1000.9 hPa Calm     94% 0 mm 40 W/m2
10:59 0.4 °C -0.4 °C 1000.6 hPa Calm     94% 0 mm 40 W/m2
11:04 0.4 °C -0.4 °C 1000.6 hPa Calm     94% 0 mm 30 W/m2
11:09 0.4 °C -0.4 °C 1000.6 hPa Calm     94% 0 mm 26 W/m2
11:14 0.5 °C -0.3 °C 1000.6 hPa Calm     94% 0 mm 23 W/m2
11:19 0.6 °C -0.3 °C 1000.2 hPa Calm     94% 0 mm 23 W/m2
11:24 0.6 °C -0.3 °C 1000.2 hPa Calm     94% 0 mm 32 W/m2
11:29 0.6 °C -0.3 °C 1000.2 hPa NE 0.2 km/h 1.6 km/h 94% 0 mm 35 W/m2
11:34 0.6 °C -0.2 °C 999.9 hPa Calm   1.6 km/h 94% 0 mm 23 W/m2
11:39 0.7 °C -0.2 °C 999.9 hPa Calm     94% 0 mm 23 W/m2
11:44 0.7 °C -0.2 °C 999.9 hPa Calm     94% 0 mm 19 W/m2
11:49 0.7 °C -0.2 °C 999.9 hPa Calm     94% 0 mm 21 W/m2
11:54 0.7 °C -0.2 °C 999.5 hPa Calm     94% 0 mm 26 W/m2
11:59 0.7 °C -0.2 °C 999.9 hPa Calm     94% 0 mm 26 W/m2
12:00 0.7 °C -0.1 °C 999.9 hPa Calm     94% 0 mm 19 W/m2
12:09 0.8 °C -0.1 °C 999.9 hPa Calm     94% 0 mm 19 W/m2
12:14 0.8 °C -0.1 °C 999.9 hPa Calm     94% 0 mm 18 W/m2
12:19 0.8 °C -0.1 °C 999.5 hPa Calm     94% 0 mm 26 W/m2
12:24 0.8 °C 0 °C 999.2 hPa NE 0.6 km/h 4.8 km/h 94% 0 mm 46 W/m2
12:29 0.8 °C 0 °C 999.2 hPa NE 0.6 km/h 6.4 km/h 94% 0 mm 65 W/m2
12:34 0.8 °C 0 °C 998.9 hPa Calm   6.4 km/h 94% 0 mm 65 W/m2
12:39 0.8 °C 0 °C 998.9 hPa NE 0.5 km/h 3.2 km/h 94% 0 mm 60 W/m2
12:44 0.8 °C 0 °C 998.9 hPa NE 0.3 km/h 4.8 km/h 94% 0 mm 62 W/m2
12:49 0.9 °C 0.1 °C 998.9 hPa Calm   4.8 km/h 94% 0 mm 49 W/m2
12:54 0.9 °C 0.1 °C 998.9 hPa Calm   4.8 km/h 94% 0 mm 47 W/m2
12:59 0.9 °C 0.1 °C 998.5 hPa Calm   4.8 km/h 94% 0 mm 58 W/m2
13:04 0.9 °C 0.1 °C 998.5 hPa Calm   4.8 km/h 94% 0 mm 58 W/m2
13:09 0.9 °C 0.1 °C 998.5 hPa Calm     94% 0 mm 51 W/m2
13:14 0.9 °C 0.1 °C 998.2 hPa Calm     94% 0 mm 56 W/m2
13:19 1 °C 0.2 °C 998.2 hPa Calm     94% 0 mm 44 W/m2
13:24 1 °C 0.2 °C 998.2 hPa Calm     94% 0 mm 40 W/m2
13:29 1 °C 0.2 °C 998.2 hPa Calm     94% 0 mm 47 W/m2
13:34 1.1 °C 0.2 °C 998.2 hPa Calm     94% 0 mm 63 W/m2
13:39 1.1 °C 0.2 °C 997.9 hPa Calm     94% 0 mm 54 W/m2
13:44 1.1 °C 0.3 °C 997.9 hPa Calm     94% 0 mm 81 W/m2
13:49 1.2 °C 0.3 °C 997.9 hPa Calm     94% 0 mm 81 W/m2
13:54 1.2 °C 0.3 °C 998.2 hPa Calm     94% 0 mm 37 W/m2
13:59 1.1 °C 0.2 °C 997.9 hPa Calm     94% 0 mm 46 W/m2
14:04 1.1 °C 0.2 °C 997.9 hPa Calm     94% 0 mm 42 W/m2
14:09 1.1 °C 0.2 °C 997.9 hPa Calm     94% 0 mm 47 W/m2
14:14 1.1 °C 0.2 °C 997.9 hPa Calm     94% 0 mm 67 W/m2
14:19 1.1 °C 0.3 °C 997.9 hPa Calm     94% 0 mm 83 W/m2
14:24 1.2 °C 0.3 °C 997.5 hPa Calm     94% 0 mm 83 W/m2
14:29 1.2 °C 0.5 °C 997.5 hPa Calm     94.9% 0 mm 69 W/m2
14:34 1.2 °C 0.5 °C 997.5 hPa Calm     95% 0 mm 63 W/m2
14:39 1.3 °C 0.6 °C 997.5 hPa Calm     95% 0 mm 53 W/m2
14:44 1.3 °C 0.6 °C 997.5 hPa Calm     95% 0 mm 39 W/m2
14:49 1.3 °C 0.6 °C 997.5 hPa Calm     95% 0 mm 42 W/m2
14:54 1.3 °C 0.6 °C 997.5 hPa Calm     95% 0 mm 40 W/m2
14:59 1.3 °C 0.6 °C 997.5 hPa Calm     95% 0 mm 39 W/m2
15:04 1.3 °C 0.6 °C 997.5 hPa Calm     95% 0 mm 39 W/m2
15:09 1.3 °C 0.6 °C 997.5 hPa Calm     95% 0 mm 37 W/m2
15:14 1.3 °C 0.6 °C 997.5 hPa Calm     95% 0 mm 28 W/m2
15:19 1.3 °C 0.6 °C 997.5 hPa Calm     95% 0 mm 40 W/m2
15:24 1.3 °C 0.6 °C 997.9 hPa Calm     95% 0 mm 40 W/m2
15:29 1.3 °C 0.6 °C 997.9 hPa Calm     95% 0 mm 28 W/m2
15:34 1.3 °C 0.7 °C 997.5 hPa Calm     95% 0 mm 30 W/m2
15:39 1.4 °C 0.7 °C 997.5 hPa Calm     95% 0 mm 32 W/m2
15:44 1.4 °C 0.7 °C 997.9 hPa Calm     95% 0 mm 30 W/m2
15:49 1.4 °C 0.5 °C 997.9 hPa Calm     94.1% 0 mm 25 W/m2
15:54 1.3 °C 0.5 °C 997.9 hPa Calm     94% 0 mm 16 W/m2
15:59 1.3 °C 0.5 °C 997.9 hPa Calm     94% 0 mm 9 W/m2
16:00 1.4 °C 0.5 °C 997.9 hPa Calm     94% 0 mm 0 W/m2
16:09 1.3 °C 0.5 °C 997.9 hPa Calm     94.1% 0 mm 5 W/m2
16:14 1.3 °C 0.6 °C 998.2 hPa Calm     94.8% 0 mm 0 W/m2
16:19 1.3 °C 0.6 °C 998.2 hPa Calm     95% 0 mm 0 W/m2
16:24 1.3 °C 0.6 °C 998.2 hPa Calm     95% 0 mm 0 W/m2
16:29 1.3 °C 0.6 °C 998.2 hPa Calm     95% 0 mm 0 W/m2
16:34 1.3 °C 0.6 °C 998.2 hPa Calm     95% 0 mm 0 W/m2
16:39 1.3 °C 0.6 °C 998.2 hPa Calm     95% 0 mm 0 W/m2
16:44 1.3 °C 0.6 °C 997.9 hPa Calm     95% 0 mm 0 W/m2
16:49 1.3 °C 0.6 °C 998.2 hPa Calm     95% 0 mm 0 W/m2
16:54 1.3 °C 0.6 °C 998.5 hPa Calm     95% 0 mm 0 W/m2
16:59 1.3 °C 0.6 °C 998.5 hPa Calm     95% 0 mm 0 W/m2
17:04 1.3 °C 0.6 °C 998.5 hPa Calm     95% 0 mm 0 W/m2
17:09 1.2 °C 0.5 °C 998.5 hPa Calm     95% 0 mm 0 W/m2
17:14 1.2 °C 0.5 °C 998.5 hPa Calm     95% 0 mm 0 W/m2
17:19 1.2 °C 0.5 °C 998.5 hPa Calm     95% 0 mm 0 W/m2
17:24 1.2 °C 0.5 °C 998.5 hPa Calm     95% 0 mm 0 W/m2
17:29 1.2 °C 0.5 °C 998.5 hPa Calm     95% 0 mm 0 W/m2
17:34 1.2 °C 0.5 °C 998.5 hPa Calm     95% 0 mm 0 W/m2
17:39 1.2 °C 0.6 °C 998.5 hPa Calm     95% 0 mm 0 W/m2
17:44 1.3 °C 0.6 °C 998.9 hPa Calm     95% 0 mm 0 W/m2
17:49 1.3 °C 0.6 °C 998.9 hPa Calm     95% 0 mm 0 W/m2
17:54 1.3 °C 0.6 °C 998.5 hPa Calm     95% 0 mm 0 W/m2
17:59 1.3 °C 0.6 °C 998.9 hPa Calm     95% 0 mm 0 W/m2
18:04 1.3 °C 0.6 °C 998.5 hPa Calm     95% 0 mm 0 W/m2
18:09 1.3 °C 0.6 °C 998.9 hPa Calm     95% 0 mm 0 W/m2
18:14 1.3 °C 0.6 °C 998.9 hPa Calm     95% 0 mm 0 W/m2
18:19 1.3 °C 0.6 °C 998.5 hPa Calm     95% 0 mm 0 W/m2
18:20 1.3 °C 0.6 °C 998.5 hPa Calm     95% 0 mm 0 W/m2
18:29 1.3 °C 0.6 °C 998.9 hPa Calm     95% 0 mm 0 W/m2
18:34 1.3 °C 0.6 °C 998.9 hPa Calm     95% 0 mm 0 W/m2
18:39 1.3 °C 0.6 °C 998.9 hPa Calm     95% 0 mm 0 W/m2
18:44 1.3 °C 0.6 °C 998.9 hPa Calm     95% 0 mm 0 W/m2
18:49 1.3 °C 0.6 °C 998.9 hPa Calm     95% 0 mm 0 W/m2
18:54 1.3 °C 0.6 °C 998.9 hPa Calm     95% 0 mm 0 W/m2
18:59 1.3 °C 0.6 °C 998.5 hPa Calm     95% 0 mm 0 W/m2
19:04 1.3 °C 0.6 °C 998.9 hPa Calm     95% 0 mm 0 W/m2
19:09 1.3 °C 0.6 °C 999.2 hPa Calm     95% 0 mm 0 W/m2
19:14 1.3 °C 0.6 °C 999.5 hPa Calm     95% 0 mm 0 W/m2
19:19 1.3 °C 0.6 °C 999.5 hPa Calm     95% 0 mm 0 W/m2
19:24 1.3 °C 0.6 °C 999.5 hPa Calm     95% 0 mm 0 W/m2
19:29 1.3 °C 0.6 °C 999.5 hPa Calm     95% 0 mm 0 W/m2
19:34 1.3 °C 0.6 °C 999.5 hPa Calm     95% 0 mm 0 W/m2
19:39 1.3 °C 0.6 °C 999.5 hPa Calm     95% 0 mm 0 W/m2
19:44 1.3 °C 0.6 °C 999.5 hPa Calm     95% 0 mm 0 W/m2
19:49 1.3 °C 0.6 °C 999.5 hPa Calm     95% 0 mm 0 W/m2
19:54 1.4 °C 0.7 °C 999.5 hPa Calm     95% 0 mm 0 W/m2
19:58 1.4 °C 0.7 °C 999.5 hPa Calm     95% 0 mm 0 W/m2
20:04 1.4 °C 0.7 °C 999.5 hPa Calm     95% 0 mm 0 W/m2
20:09 1.4 °C 0.7 °C 999.5 hPa Calm     95% 0 mm 0 W/m2
20:14 1.4 °C 0.7 °C 999.5 hPa Calm     95% 0 mm 0 W/m2
20:19 1.5 °C 0.8 °C 999.2 hPa Calm     95% 0 mm 0 W/m2
20:24 1.5 °C 0.8 °C 999.2 hPa Calm     95% 0 mm 0 W/m2
20:29 1.6 °C 0.8 °C 999.2 hPa NE 0.3 km/h 4.8 km/h 95% 0 mm 0 W/m2
20:34 1.6 °C 0.8 °C 999.2 hPa NE 0.3 km/h 4.8 km/h 95% 0 mm 0 W/m2
20:39 1.6 °C 0.8 °C 999.5 hPa Calm   3.2 km/h 95% 0 mm 0 W/m2
20:44 1.6 °C 0.8 °C 999.5 hPa NE 0.6 km/h 3.2 km/h 95% 0 mm 0 W/m2
20:49 1.6 °C 0.8 °C 999.2 hPa NE 0.6 km/h 4.8 km/h 95% 0 mm 0 W/m2
20:54 1.6 °C 0.8 °C 999.2 hPa NE 0.6 km/h 6.4 km/h 95% 0 mm 0 W/m2
20:59 1.6 °C 0.8 °C 999.2 hPa NE 0.3 km/h 6.4 km/h 95% 0 mm 0 W/m2
21:04 1.6 °C 0.8 °C 999.2 hPa Calm   6.4 km/h 95% 0 mm 0 W/m2
21:09 1.6 °C 0.8 °C 999.2 hPa Calm     95% 0 mm 0 W/m2
21:14 1.6 °C 0.9 °C 999.2 hPa NE 0.3 km/h 4.8 km/h 95% 0 mm 0 W/m2
21:19 1.6 °C 0.9 °C 999.5 hPa Calm   4.8 km/h 95% 0 mm 0 W/m2
21:24 1.6 °C 0.9 °C 999.9 hPa NE 0.3 km/h 4.8 km/h 95% 0 mm 0 W/m2
21:29 1.6 °C 0.9 °C 999.9 hPa NE 0.5 km/h 4.8 km/h 95% 0 mm 0 W/m2
21:34 1.6 °C 0.9 °C 999.5 hPa Calm   4.8 km/h 95% 0 mm 0 W/m2
21:39 1.6 °C 0.9 °C 999.5 hPa Calm     95% 0 mm 0 W/m2
21:44 1.7 °C 0.9 °C 999.5 hPa Calm     95% 0 mm 0 W/m2
21:49 1.7 °C 0.9 °C 999.5 hPa NE 0.2 km/h 3.2 km/h 95% 0 mm 0 W/m2
21:54 1.7 °C 0.9 °C 999.9 hPa NE 0.3 km/h 4.8 km/h 95% 0 mm 0 W/m2
21:59 1.7 °C 0.9 °C 999.9 hPa Calm   4.8 km/h 95% 0 mm 0 W/m2
22:03 1.7 °C 0.9 °C 999.9 hPa Calm   4.8 km/h 95% 0 mm 0 W/m2
Hartford County Weather
Compliments of Weather Underground - 2 mb